Weather History for Palmdale, CA

Change the Weather History Date:

Wednesday, April 20, 2011

  Actual Average Record
Temperature  
Mean Temperature 64 °F 59 °F  
Max Temperature 75 °F 74 °F 94 °F (1950)
Min Temperature 52 °F 45 °F 28 °F (1966)
Degree Days  
Heating Degree Days 1 7  
Month to date heating degree days 149 176  
Since 1 July heating degree days 2816 2797  
Cooling Degree Days 0 1  
Month to date cooling degree days 5 5  
Year to date cooling degree days 6 7  
Growing Degree Days 14 (Base 50)    
Moisture  
Dew Point 46 °F    
Average Humidity 57    
Maximum Humidity 83    
Minimum Humidity 31    
Precipitation  
Precipitation 0.00 in 0.02 in 0.70 in (1988)
Month to date precipitation T 0.34  
Year to date precipitation 2.33 4.85  
Since 1 July precipitation 7.71 7.83  
Snow  
Snow 0.00 in - 0.00 in (1973)
Month to date snowfall 0.0  
Since 1 July snowfall 0.0  
Snow Depth 0.00 in    
Sea Level Pressure  
Sea Level Pressure 29.94 in    
Wind  
Wind Speed 16 mph (WSW)    
Max Wind Speed 28 mph    
Max Gust Speed 35 mph    
Visibility 10 miles    
Events      
T = Trace of Precipitation, MM = Missing Value Source: NWS Daily Summary

Daily Weather History Graph

Daily Weather History Graph

Search for Another Location

Airport:

Trip Planner

Search our weather history database for the weather conditions in past years. The results will help you decide how hot, cold, wet, or windy it might be!

Date:

Astronomy

Apr. 20, 2011 Rise Set
Actual Time 6:14 AM PDT 7:28 PM PDT
Civil Twilight 5:48 AM PDT 7:54 PM PDT
Nautical Twilight 5:17 AM PDT 8:25 PM PDT
Astronomical Twilight 4:45 AM PDT 8:58 PM PDT
Moon 10:55 PM PDT (4/20) 8:00 AM PDT (4/20)
Length of Visible Light 14h 05m
Length of Day
13h 13m
Waning Gibbous, 90% of the Moon is Illuminated
Apr 20
Waning Gibbous
Apr 24
Last Quarter
May 2
New
May 10
First Quarter
May 17
Full

Hourly Weather History & Observations

Time (PDT) Temp. Dew Point Humidity Pressure Visibility Wind Dir Wind Speed Gust Speed Precip Events Conditions
12:53 AM 55.0 °F 48.0 °F 77% 29.90 in 10.0 mi SW 13.8 mph - N/A   Clear
1:53 AM 54.0 °F 48.0 °F 80% 29.89 in 10.0 mi SW 17.3 mph - N/A   Clear
2:53 AM 53.1 °F 48.0 °F 83% 29.90 in 10.0 mi SW 19.6 mph - N/A   Clear
3:53 AM 53.1 °F 48.0 °F 83% 29.91 in 9.0 mi SSW 18.4 mph - N/A   Clear
4:53 AM 53.1 °F 48.0 °F 83% 29.90 in 10.0 mi SW 17.3 mph - N/A   Clear
5:53 AM 53.1 °F 48.0 °F 83% 29.90 in 9.0 mi SSW 20.7 mph - N/A   Clear
6:53 AM 54.0 °F 46.9 °F 77% 29.93 in 10.0 mi SW 11.5 mph - N/A   Clear
7:53 AM 60.1 °F 46.9 °F 62% 29.94 in 10.0 mi West 13.8 mph - N/A   Clear
8:53 AM 63.0 °F 46.9 °F 56% 29.96 in 10.0 mi WSW 11.5 mph - N/A   Clear
9:53 AM 66.9 °F 46.0 °F 47% 29.94 in 10.0 mi West 10.4 mph - N/A   Clear
10:53 AM 69.1 °F 42.1 °F 38% 29.94 in 10.0 mi WSW 16.1 mph - N/A   Clear
11:53 AM 69.1 °F 45.0 °F 42% 29.95 in 10.0 mi WSW 19.6 mph 28.8 mph N/A   Clear
12:53 PM 72.0 °F 42.1 °F 34% 29.95 in 10.0 mi West 21.9 mph 31.1 mph N/A   Clear
1:53 PM 73.0 °F 41.0 °F 31% 29.95 in 10.0 mi West 20.7 mph 28.8 mph N/A   Clear
2:53 PM 75.0 °F 48.0 °F 38% 29.94 in 10.0 mi WNW 19.6 mph 31.1 mph N/A   Clear
3:53 PM 73.0 °F 48.9 °F 42% 29.95 in 10.0 mi WNW 19.6 mph 29.9 mph N/A   Scattered Clouds
4:53 PM 70.0 °F 48.9 °F 47% 29.96 in 10.0 mi WNW 25.3 mph 31.1 mph N/A   Clear
5:53 PM 68.0 °F 46.0 °F 45% 29.97 in 10.0 mi WNW 20.7 mph 26.5 mph N/A   Clear
6:53 PM 64.9 °F 43.0 °F 45% 29.98 in 10.0 mi WNW 17.3 mph - N/A   Clear
7:53 PM 61.0 °F 43.0 °F 52% 29.98 in 10.0 mi West 10.4 mph - N/A   Clear
8:53 PM 59.0 °F 48.9 °F 69% 29.98 in 10.0 mi SW 6.9 mph - N/A   Clear
9:53 PM 59.0 °F 46.0 °F 62% 29.99 in 10.0 mi WSW 10.4 mph - N/A   Clear
10:53 PM 57.9 °F 46.0 °F 65% 29.99 in 10.0 mi WSW 9.2 mph - N/A   Clear
11:53 PM 57.9 °F 45.0 °F 62% 29.98 in 10.0 mi WSW 10.4 mph - N/A   Clear